UAL560 KMIA-KPHX

Flight info

Callsign UAL560
Flight time N/A
Altitude 30000
Route GLADZ4 BAGGS Y290 LEV J86 JCT/N0501F320 J86 ELP DRRVR PINNG1
Aircraft B763/H-SDE3FGHIM3RWXY/LB1

Departure

Time 2026-05-04 00:26
Airport Miami International Airport (KMIA)

Arrival

Time N/A
Airport Phoenix Sky Harbor International Airport (KPHX)
Time Latitude Longitude Altitude Speed Heading
2026-05-03 23:46 25.79155 -80.27838 31 ft 0 kts 293°
2026-05-04 00:16 25.79150 -80.27828 30 ft 2 kts 282°
2026-05-04 00:17 25.79144 -80.27818 29 ft 2 kts 295°
2026-05-04 00:17 25.79139 -80.27804 28 ft 2 kts 267°
2026-05-04 00:17 25.79141 -80.27786 28 ft 2 kts 239°
2026-05-04 00:17 25.79151 -80.27771 27 ft 2 kts 202°
2026-05-04 00:18 25.79158 -80.27768 29 ft 0 kts 184°
2026-05-04 00:21 25.79083 -80.27783 31 ft 20 kts 197°
2026-05-04 00:22 25.78967 -80.27835 30 ft 18 kts 211°
2026-05-04 00:22 25.78933 -80.27978 32 ft 20 kts 254°
2026-05-04 00:22 25.78956 -80.28110 31 ft 23 kts 299°
2026-05-04 00:22 25.79041 -80.28275 31 ft 27 kts 300°
2026-05-04 00:23 25.79151 -80.28465 30 ft 33 kts 304°
2026-05-04 00:23 25.79266 -80.28680 29 ft 34 kts 299°
2026-05-04 00:23 25.79370 -80.28892 29 ft 25 kts 299°
2026-05-04 00:23 25.79456 -80.29054 30 ft 24 kts 298°
2026-05-04 00:24 25.79540 -80.29222 28 ft 25 kts 300°
2026-05-04 00:24 25.79630 -80.29398 26 ft 28 kts 300°
2026-05-04 00:24 25.79725 -80.29583 31 ft 28 kts 299°
2026-05-04 00:24 25.79825 -80.29782 26 ft 28 kts 300°
2026-05-04 00:25 25.79920 -80.29963 25 ft 27 kts 299°
2026-05-04 00:25 25.80014 -80.30110 29 ft 19 kts 335°
2026-05-04 00:25 25.80071 -80.30073 27 ft 9 kts 76°
2026-05-04 00:25 25.80073 -80.30047 25 ft 11 kts 86°
2026-05-04 00:26 25.80093 -80.29587 25 ft 111 kts 88°
2026-05-04 00:26 25.80141 -80.28377 75 ft 197 kts 87°
2026-05-04 00:26 25.80200 -80.26780 984 ft 215 kts 88°
2026-05-04 00:26 25.80194 -80.25030 1819 ft 237 kts 92°
2026-05-04 00:27 25.80060 -80.23163 2751 ft 248 kts 92°
2026-05-04 00:27 25.80170 -80.21270 3775 ft 252 kts 83°
2026-05-04 00:27 25.80401 -80.19327 4778 ft 257 kts 75°
2026-05-04 00:27 25.81290 -80.17622 5841 ft 260 kts 44°
2026-05-04 00:28 25.82816 -80.16623 6869 ft 262 kts 18°
2026-05-04 00:28 25.84577 -80.16069 7892 ft 266 kts 12°
2026-05-04 00:28 25.86422 -80.15811 8879 ft 269 kts 359°
2026-05-04 00:28 25.88307 -80.15939 9842 ft 273 kts 352°
2026-05-04 00:29 25.90236 -80.16228 10450 ft 293 kts 350°
2026-05-04 00:29 25.92339 -80.16713 10592 ft 323 kts 342°
2026-05-04 00:29 25.94546 -80.17517 10866 ft 343 kts 341°
2026-05-04 00:29 25.96725 -80.18717 11135 ft 359 kts 322°
2026-05-04 00:30 25.98397 -80.20807 11534 ft 366 kts 301°
2026-05-04 00:30 25.99630 -80.23278 12058 ft 370 kts 297°
2026-05-04 00:30 26.00794 -80.25839 12570 ft 373 kts 296°
2026-05-04 00:30 26.01933 -80.28441 13029 ft 376 kts 295°
2026-05-04 00:31 26.02950 -80.31129 13485 ft 378 kts 289°
2026-05-04 00:31 26.03837 -80.33874 13903 ft 380 kts 290°
2026-05-04 00:31 26.04766 -80.36644 14310 ft 383 kts 290°
2026-05-04 00:31 26.05702 -80.39422 14694 ft 385 kts 290°
2026-05-04 00:32 26.06644 -80.42220 15068 ft 387 kts 290°
2026-05-04 00:32 26.07587 -80.45041 15424 ft 389 kts 290°
2026-05-04 00:32 26.08535 -80.47870 15768 ft 391 kts 290°
2026-05-04 00:32 26.09478 -80.50682 16102 ft 393 kts 290°
2026-05-04 00:33 26.10445 -80.53576 16406 ft 395 kts 290°
2026-05-04 00:33 26.12358 -80.59298 16970 ft 399 kts 290°
2026-05-04 00:33 26.13329 -80.62208 17251 ft 401 kts 290°
2026-05-04 00:34 26.14301 -80.65117 17500 ft 402 kts 290°
2026-05-04 00:34 26.15274 -80.68041 17747 ft 404 kts 290°
2026-05-04 00:34 26.16252 -80.70975 17951 ft 405 kts 290°
2026-05-04 00:34 26.17233 -80.73921 18156 ft 406 kts 290°
2026-05-04 00:35 26.18214 -80.76874 18335 ft 407 kts 290°
2026-05-04 00:35 26.19202 -80.79841 18521 ft 409 kts 290°
2026-05-04 00:35 26.20187 -80.82812 18684 ft 410 kts 290°
2026-05-04 00:35 26.21176 -80.85792 18859 ft 411 kts 290°
2026-05-04 00:36 26.22169 -80.88784 19013 ft 412 kts 290°
2026-05-04 00:36 26.23160 -80.91781 19165 ft 413 kts 290°
2026-05-04 00:36 26.24145 -80.94751 19352 ft 412 kts 290°
2026-05-04 00:36 26.25138 -80.97754 19534 ft 415 kts 290°
2026-05-04 00:37 26.26137 -81.00780 19819 ft 416 kts 290°
2026-05-04 00:37 26.27141 -81.03816 20085 ft 418 kts 290°
2026-05-04 00:37 26.28145 -81.06862 20374 ft 420 kts 290°
2026-05-04 00:37 26.29156 -81.09928 20674 ft 422 kts 290°
2026-05-04 00:38 26.30168 -81.12998 20943 ft 423 kts 290°
2026-05-04 00:38 26.31185 -81.16091 21194 ft 425 kts 290°
2026-05-04 00:38 26.32195 -81.19160 21426 ft 427 kts 290°
2026-05-04 00:38 26.33217 -81.22272 21669 ft 428 kts 290°
2026-05-04 00:39 26.34242 -81.25395 21892 ft 430 kts 290°
2026-05-04 00:39 26.35273 -81.28534 22102 ft 431 kts 290°
2026-05-04 00:39 26.36303 -81.31679 22307 ft 433 kts 290°
2026-05-04 00:39 26.37338 -81.34837 22501 ft 434 kts 290°
2026-05-04 00:40 26.38373 -81.37999 22706 ft 435 kts 290°
2026-05-04 00:40 26.39408 -81.41169 22956 ft 434 kts 290°
2026-05-04 00:40 26.40440 -81.44324 23206 ft 434 kts 290°
2026-05-04 00:40 26.41471 -81.47485 23466 ft 433 kts 290°
2026-05-04 00:41 26.42502 -81.50647 23714 ft 433 kts 290°